Location: Unspecified
(0.0000°N, 0.0000°E)
Time: 14:15:38
(UTC+00:00)

Vanguard 2 - Pass Details

Date: 18 September 2019
Orbit: 554 x 2937 km, 32.9° (Epoch: 13 October)

Event Time Altitude Azimuth Distance (km) Brightness Sun altitude
Rises 19:45:41 0° 215° (SW) 5,617 12.4 -27.9°
Reaches altitude 10° 19:50:44 10° 199° (SSW) 4,999 11.8 -29.1°
Maximum altitude 20:01:08 21° 156° (SSE) 4,685 11.2 -31.7°
Enters shadow 20:03:52 20° 144° (SE) 4,825 11.2 -32.4°
Drops below altitude 10° 20:12:54 10° 114° (ESE) 5,769 - -34.7°
Sets 20:19:21 0° 99° (E) 6,714 - -36.3°
